USTRANSCOM 7665


PAED
Elmendorf Air Force Base
Elmendorf, Alaska, US
KSUU
Travis Air Force Base
Fairfield, California, US

Activity Log

Date Flight Route Aircraft Duration
03/18/2019 CMB865 TED J804R MDO B453 BOXER ENI SEATO4 B752 4h 08m

Route Details

Aircraft Information
Primary: Boeing 757-200SF
Backup: Not Available
Route Data
Distance: 1728nm
Sched. Duration: 5h 09m
Avg. Duration: 4h 08m (-102m)
Times Flown: 1
Recm'd Route: TED V440 MDO J804R FRIED TR19 YZP Q801 YAZ J501 TOU ELMAA Q1 TOCOS SUTHU1
Planned Altitude: 33,000ft
Origin Wx: PAED 080556Z 20008KT 10SM SCT075 17/07 A2961 RMK AO2A SLP022 60000 T01650074 10207 20165 52022 $
Dest. Wx: KSUU 080558Z AUTO 22016KT 10SM CLR 19/13 A2985 RMK AO2 SLP115 T01920129 10335 20192 52004 $
Notes: USTRANSCOM CONTRACT FLIGHT

Financial History
Total Freight: 31,984lbs
Average Load: 31,984lbs/flt
Fuel Used: 31,238lbs
Avg. Fuel Used: 31,238lbs/flt
Fuel Expense: $24,990
Avg. Fuel Expense: $24,990
Avg. Fuel Cost: $0.80/lbs
Total Gross Income: $60,450
Pilot Pay: $229
Total Expenses: $6,581
Total Revenue: $27,891
Average Revenue: $60,449.76